Regional Weather Roundup
Issued by NWS

Home | Current Version | Previous Version | Graphics & Text | Print | Product List | Glossary On
Versions: 1 2 3 4 5 6 7 8 9 10 11 12 13 14 15 16 17 18 19 20 21 22 23 24 25 26 27 28 29 30 31 32 33 34 35 36 37 38 39 40 41 42 43 44 45 46 47 48 49 50
000
ASUS45 KABQ 260310
RWRNM
NEW MEXICO REGIONAL WEATHER ROUNDUP
NATIONAL WEATHER SERVICE ALBUQUERQUE NM
900 PM MDT MON MAY 25 2015

NOTE: "FAIR" MEANS FEW OR NO CLOUDS BELOW 12,000 FEET AGL WITH NO
       SIGNIFICANT WEATHER OR OBSTRUCTIONS TO VISION.

      THIS PRODUCT IS RELEASED AS TWO VERSIONS.  ONE VERSION NEAR
      THE TOP OF THE HOUR CONTAINING PRELIMINARY DATA FROM ALBUQUERQUE
      AND OTHER STATIONS.  A FINAL VERSION WITH ADDITIONAL DATA IS
      ISSUED ABOUT 10 MINUTES AFTER THE HOUR.

NMZ501-503-504-510>518-260400-
NORTHWEST PLATEAU/NORTHCENTRAL MOUNTAINS

CITY           SKY/WX    TMP DP  RH WIND       PRES   REMARKS
FARMINGTON     CLEAR     53  42  66 W5        30.02S
LOS ALAMOS     CLOUDY    49  40  70 S7        30.11R
SANTA FE       CLOUDY    52  42  69 NE6       30.05S
TAOS           CLOUDY    52  36  54 SW6       30.08R
ANGEL FIRE     FAIR      46  37  70 SW8       30.12R

$$
NMZ402-403-502-505>509-260400-
WESTCENTRAL MOUNTAINS/SOUTHWEST MOUNTAINS

CITY           SKY/WX    TMP DP  RH WIND       PRES   REMARKS
GALLUP         MOCLDY    50  45  83 CALM      30.11R
GRANTS         PTCLDY    49  36  61 CALM      30.12S
SILVER CITY      N/A     64  25  22 W8        30.06R

$$
NMZ407-409-411-412-260400-
SOUTHERN DESERTS

CITY           SKY/WX    TMP DP  RH WIND       PRES   REMARKS
LORDSBURG      FAIR      70  28  21 NW7       29.99R
DEMING         CLEAR     72  23  16 W10       29.97R
LAS CRUCES     CLEAR     72  21  14 W12       29.98R
HOLLOMAN AFB   PTCLDY    70  36  28 N8        29.93R
ALAMOGORDO     PTCLDY    72  34  25 N8        29.95R
T OR C         MOCLDY    68  38  33 N12G21    29.99R

$$
NMZ519>523-260400-
CENTRAL VALLEYS/CENTRAL HIGHLANDS

CITY           SKY/WX    TMP DP  RH WIND       PRES   REMARKS
ALBUQUERQUE    MOCLDY    57  49  74 SE8       30.06R
DOUBLE EAGLE   MOCLDY    54  45  71 CALM      30.08R
MORIARTY ARPT  MOCLDY    49  45  85 S6        30.10S
CLINES CORNERS CLOUDY    47  44  90 SW16      30.10R
BELEN          CLOUDY    55  48  75 S5        30.07R
SOCORRO        FAIR      58  45  60 NW13G18   30.05R

$$
NMZ524>526-539-540-260400-
SOUTHCENTRAL MOUNTAINS

CITY           SKY/WX    TMP DP  RH WIND       PRES   REMARKS
RUIDOSO        PTCLDY    55  34  44 NW12G17   30.11R

$$
NMZ527>531-260400-
NORTHEAST HIGHLANDS/NORTHEAST PLAINS

CITY           SKY/WX    TMP DP  RH WIND       PRES   REMARKS
LAS VEGAS      CLOUDY    54  39  57 NW8       30.05R
RATON          PTCLDY    49  42  77 NW3       29.99S
CLAYTON        PTCLDY    56  47  71 NW12      29.92R

$$
NMZ532>537-260400-
EASTCENTRAL PLAINS

CITY           SKY/WX    TMP DP  RH WIND       PRES   REMARKS
TUCUMCARI      MOCLDY    70  38  31 W16       29.86R
CANNON AFB     MOCLDY    68  42  38 W12       29.90R
CLOVIS AIRPORT MOCLDY    64  43  45 W10       29.88R

$$
NMZ028-029-538-260400-
SOUTHEAST PLAINS

CITY           SKY/WX    TMP DP  RH WIND       PRES   REMARKS
ROSWELL        MOCLDY    74  40  29 N12       29.89R
ARTESIA        PTCLDY    75  39  27 N13       29.90R
CARLSBAD       CLEAR     70  33  25 SW10      29.85R
HOBBS          PTCLDY    64  45  48 SE8       29.90R


$$


USA.gov is the U.S. government's official web portal to all federal, state and local government web resources and services.